Tiempo atmosférico en la estación meteorológica de Teror, Las Palmas (683 m.)



Fecha
DESCASC
Temp. máxima en grados centígrados (hora)
DESCASC
Temp. mínima en grados centígrados (hora)
DESCASC
Temp. media en grados centígrados
DESCASC
Racha de viento máxima en m/sg (hora)
DESCASC
Velocidad máxima media en intervalos de 10 minutos(hora)
DESCASC
Precipitaciones diarias en mm
DESCASC
Precipitaciones de 00:00 a 06:00 en mm
DESCASC
Precipitaciones de 06:00 a 12:00 en mm
DESCASC
Precipitaciones de 12:00 a 18:00 en mm
DESCASC
Precipitaciones de 18:00 a 24:00 en mm
DESCASC
10-11-2019 18.3 (13:10) 12.8 (00:00) 15.5 9.17 (11:30) 4.17 (19:40) 0.2 0.2 0 0 0
09-11-2019 15.6 (14:00) 13 (00:00) 14.3 8.89 (11:00) 5.28 (11:20) 4.2 0 2 0.6 1.6
08-11-2019 17.3 (11:30) 13.4 (00:00) 15.3 10 (13:20) 5.28 (13:50) 6 2.4 2.4 1 0.2
07-11-2019 17.5 (12:40) 11.9 (00:00) 14.7 8.06 (11:40) 4.17 (11:30) 4.8 1 1.2 0 2.6
06-11-2019 15.9 (12:30) 12.4 (00:00) 14.1 8.89 (20:40) 4.72 (11:20) 6.2 2 1.2 0.6 2.4
05-11-2019 19 (11:40) 13.3 (00:00) 16.2 9.44 (20:20) 5 (20:20) 20.4 0.2 0 2.4 17.8
04-11-2019 19.1 (15:30) 14.6 (00:00) 16.9 9.72 (23:40) 5 (23:40) 1.6 0 0.8 0 0.8
03-11-2019 23.3 (10:50) 15.2 (00:00) 19.2 6.94 (19:30) 3.89 (13:00) 0 0 0 0 0
02-11-2019 26.7 (11:30) 15.7 (00:00) 21.2 8.89 (15:30) 3.61 (14:50) 0 0 0 0 0
01-11-2019 22.6 (17:00) 14.9 (00:00) 18.8 7.5 (05:00) 3.06 (05:30) 0.8 0.2 0.6 0 0
31-10-2019 22.7 (13:00) 15.1 (07:00) 18.9 6.67 (23:59) 2.5 (13:10) 0 0 0 0 0
30-10-2019 26.3 (09:30) 15.7 (00:00) 21 5 (13:20) 2.5 (03:10) 0 0 0 0 0
29-10-2019 27.7 (13:20) 17.2 (00:00) 22.5 6.11 (13:50) 2.78 (13:40) 0 0 0 0 0
28-10-2019 28.6 (14:00) 17.7 (00:00) 23.2 6.39 (13:30) 3.06 (12:40) 0 0 0 0 0
27-10-2019 26.9 (13:30) 21.2 (00:00) 24.1 6.11 (10:30) 3.61 (10:30) 0 0 0 0 0
26-10-2019 28.3 (12:40) 19.9 (00:00) 24.1 10.56 (10:00) 5 (09:50) 0.2 0 0 0.2 0
25-10-2019 27 (22:30) 10.5 (00:00) 18.8 6.39 (19:20) 2.5 (22:30) 0 0 0 0 0
24-10-2019 19.5 (15:20) 11.9 (00:00) 15.7 7.22 (13:40) 3.61 (12:20) 0 0 0 0 0
23-10-2019 18.2 (14:50) 12.8 (00:00) 15.5 6.67 (14:30) 3.33 (04:50) 7.2 2 5.2 0 0
22-10-2019 17.1 (16:20) 12 (00:00) 14.6 8.06 (12:10) 4.17 (13:50) 2.6 1.4 1 0 0.2
21-10-2019 16.8 (15:00) 13.1 (00:00) 14.9 7.78 (16:20) 4.17 (16:20) 2.6 1 1 0.6 0
20-10-2019 22.3 (13:40) 14.5 (00:00) 18.4 7.5 (16:10) 3.61 (16:10) 25.4 0 0 14.4 11
19-10-2019 21.6 (13:40) 14.6 (00:00) 18.1 7.5 (16:40) 3.89 (14:30) 0 0 0 0 0
18-10-2019 20.7 (13:10) 12.2 (00:00) 16.5 6.67 (13:20) 3.61 (14:00) 0 0 0 0 0
17-10-2019 19.7 (14:50) 12.4 (00:00) 16.1 6.11 (15:30) 3.06 (14:20) 0 0 0 0 0
16-10-2019 16.5 (17:40) 14.3 (00:00) 15.4 4.44 (10:50) 2.22 (10:20) 0.4 0 0 0.4 0
15-10-2019 17.5 (12:30) 14.3 (00:00) 15.9 4.72 (14:40) 3.06 (12:40) 0.4 0.2 0 0.2 0

Gráficas

Temp. máximas Temp. mínimas Temp. medias Precipitaciones Rachas de viento máximas Velocidades máximas media en intervalos de 10 minutos

Datos horarios

Fecha y hora oficial Temperatura (ºC) Velocidad del viento (km/h) Dirección del viento Racha (km/h) Dirección de racha Precipitación (mm) Presión (hPa) Tendencia (hPa) Humedad (%)
2019-11-13 23:00:00 13.6 5 Norte 15 Norte 0 -- -- 91
2019-11-13 22:00:00 13.7 10 Norte 19 Nordeste 0 -- -- 94
2019-11-13 21:00:00 14 5 Nordeste 14 Nordeste 0 -- -- 97
2019-11-13 20:00:00 13.8 2 Noroeste 22 Norte 0 -- -- 94
2019-11-13 19:00:00 14 10 Norte 21 Norte 0 -- -- 94
2019-11-13 18:00:00 14.4 6 Norte 21 Norte 0 -- -- 97
2019-11-13 17:00:00 14.9 9 Norte 22 Norte 0 -- -- 96
2019-11-13 16:00:00 15.7 9 Norte 22 Norte 0 -- -- 91
2019-11-13 15:00:00 16.2 10 Norte 22 Nordeste 0 -- -- 90
2019-11-13 14:00:00 16.8 13 Nordeste 23 Norte 0 -- -- 87
2019-11-13 13:00:00 16.8 9 Norte 22 Nordeste 0 -- -- 91
2019-11-13 12:00:00 16.4 9 Norte 24 Nordeste 0 -- -- 89
2019-11-13 11:00:00 15.8 9 Norte 20 Este 0 -- -- 92
2019-11-13 10:00:00 15.3 9 Norte 22 Norte 0 -- -- 97
2019-11-13 09:00:00 14.4 9 Nordeste 24 Norte 0 -- -- 100
2019-11-13 08:00:00 14 8 Norte 16 Norte 0 -- -- 100
2019-11-13 07:00:00 13.9 5 Norte 14 Norte 0 -- -- 100
2019-11-13 06:00:00 14 5 Norte 17 Norte 0 -- -- 100
2019-11-13 05:00:00 13.5 3 Sudoeste 12 Sudeste 0 -- -- 100
2019-11-13 04:00:00 12.9 4 Sudoeste 14 Norte 0 -- -- 100
2019-11-13 03:00:00 12.3 4 Oeste 10 Sudoeste 0 -- -- 100
2019-11-13 02:00:00 12.3 5 Oeste 11 Noroeste 0 -- -- 100
2019-11-13 01:00:00 12.9 4 Oeste 9 Noroeste 0 -- -- 100
2019-11-13 00:00:00 13.2 5 Oeste 12 Nordeste 0 -- -- 100
2019-11-12 23:00:00 13.2 4 Noroeste 7 Norte 0 -- -- 100
2019-11-12 22:00:00 12.9 3 Oeste 6 Oeste 0 -- -- 100
2019-11-12 21:00:00 13.3 0 Calma 11 Noroeste 0 -- -- 100
2019-11-12 20:00:00 13.8 5 Noroeste 21 Norte 0 -- -- 100
2019-11-12 19:00:00 14.6 11 Norte 21 Norte 0 -- -- 100
2019-11-12 18:00:00 15 15 Norte 27 Norte 0 -- -- 100
2019-11-12 17:00:00 15.5 12 Norte 24 Norte 0 -- -- 100
2019-11-12 16:00:00 16.1 8 Norte 23 Norte 0 -- -- 99
2019-11-12 15:00:00 15.7 12 Norte 27 Norte 0 -- -- 100
2019-11-12 14:00:00 16.4 12 Norte 31 Norte 0 -- -- 100
2019-11-12 13:00:00 15.9 8 Norte 30 Norte 0 -- -- 100
2019-11-12 12:00:00 16.3 10 Norte 26 Norte 0 -- -- 100
2019-11-12 11:00:00 15.5 12 Nordeste 27 Norte 0 -- -- 100
2019-11-12 10:00:00 15.1 14 Norte 31 Norte 0 -- -- 100
2019-11-12 09:00:00 14.9 6 Norte 27 Nordeste 0 -- -- 100
2019-11-12 08:00:00 14.4 6 Noroeste 22 Norte 0 -- -- 100
2019-11-12 07:00:00 14.5 9 Nordeste 26 Norte 0 -- -- 100
2019-11-12 06:00:00 14.3 10 Norte 20 Norte 0 -- -- 100
2019-11-12 05:00:00 14.2 11 Noroeste 23 Norte 0 -- -- 100
2019-11-12 04:00:00 13.8 6 Norte 23 Noroeste 0 -- -- 100
2019-11-12 03:00:00 13.9 8 Norte 26 Norte 0 -- -- 100
2019-11-12 02:00:00 14.1 13 Norte 24 Norte 0 -- -- 100
2019-11-12 01:00:00 14 8 Noroeste 26 Norte 0 -- -- 100
2019-11-12 00:00:00 14 8 Norte 28 Norte 0 -- -- 100
2019-11-11 23:00:00 14.4 11 Norte 22 Norte 0 -- -- 100
2019-11-11 22:00:00 14.1 8 Norte 30 Norte 0 -- -- 100
2019-11-11 21:00:00 14.1 10 Norte 28 Norte 0 -- -- 100
2019-11-11 20:00:00 14 11 Norte 27 Norte 0 -- -- 100
2019-11-11 19:00:00 14.4 15 Norte 27 Noroeste 0 -- -- 100
2019-11-11 18:00:00 14.2 8 Norte 31 Norte 0 -- -- 100
2019-11-11 17:00:00 14.4 8 Norte 30 Norte 0 -- -- 100
2019-11-11 16:00:00 14.1 14 Norte 33 Norte 0 -- -- 100
2019-11-11 15:00:00 14.7 9 Norte 26 Nordeste 0 -- -- 99
2019-11-11 14:00:00 15.1 10 Norte 30 Nordeste 0 -- -- 94
2019-11-11 13:00:00 14.6 13 Norte 28 Norte 0 -- -- 98
2019-11-11 12:00:00 15.5 13 Norte 27 Norte 0 -- -- 93
2019-11-11 11:00:00 15.9 12 Norte 23 Norte 0 -- -- 91
2019-11-11 10:00:00 16 8 Norte 22 Norte 0 -- -- 86
2019-11-11 09:00:00 14.3 12 Norte 25 Nordeste 0 -- -- 98
2019-11-11 08:00:00 13.9 7 Norte 20 Norte 0 -- -- 95
2019-11-11 07:00:00 13.3 7 Norte 18 Norte 0 -- -- 94
2019-11-11 06:00:00 14 9 Norte 18 Nordeste 0 -- -- 97
2019-11-11 05:00:00 13.6 5 Norte 22 Norte 0 -- -- 95
2019-11-11 04:00:00 14 6 Norte 24 Norte 0 -- -- 90
2019-11-11 03:00:00 13.8 10 Norte 22 Norte 0.2 -- -- 92
2019-11-11 02:00:00 14 6 Norte 13 Norte 0 -- -- 92
2019-11-11 01:00:00 13.7 9 Nordeste 22 Nordeste 0 -- -- 94
2019-11-11 00:00:00 13.9 2 Sudoeste 14 Este 0 -- -- 97
2019-11-10 23:00:00 13.6 2 Norte 22 Norte 0 -- -- 97
2019-11-10 22:00:00 14.1 8 Nordeste 22 Nordeste 0 -- -- 100
2019-11-10 21:00:00 13.9 12 Norte 30 Norte 0 -- -- 100
2019-11-10 20:00:00 14.6 15 Nordeste 29 Norte 0 -- -- 100
2019-11-10 19:00:00 15.1 11 Nordeste 26 Norte 0 -- -- 100
2019-11-10 18:00:00 15.2 11 Nordeste 26 Este 0 -- -- 99
2019-11-10 17:00:00 15.6 10 Nordeste 27 Nordeste 0 -- -- 94
2019-11-10 16:00:00 16.3 11 Nordeste 30 Este 0 -- -- 91
2019-11-10 15:00:00 17.2 13 Nordeste 23 Nordeste 0 -- -- 83
2019-11-10 14:00:00 17.2 12 Este 28 Nordeste 0 -- -- 80
2019-11-10 13:00:00 16.8 10 Nordeste 24 Nordeste 0 -- -- 86
2019-11-10 12:00:00 16.1 12 Nordeste 33 Este 0 -- -- 86
2019-11-10 11:00:00 15.6 9 Nordeste 28 Nordeste 0 -- -- 87
2019-11-10 10:00:00 15.1 12 Nordeste 25 Nordeste 0 -- -- 89
2019-11-10 09:00:00 14.2 12 Nordeste 26 Nordeste 0 -- -- 93
2019-11-10 08:00:00 13.2 6 Nordeste 18 Nordeste 0 -- -- 94
2019-11-10 07:00:00 13 6 Nordeste 15 Nordeste 0 -- -- 94
2019-11-10 06:00:00 12.9 6 Nordeste 20 Norte 0 -- -- 97
2019-11-10 05:00:00 13.1 7 Norte 20 Nordeste 0 -- -- 94
2019-11-10 04:00:00 13.1 8 Norte 23 Norte 0 -- -- 95
2019-11-10 03:00:00 13.3 11 Nordeste 22 Norte 0.2 -- -- 95
2019-11-10 02:00:00 13.3 6 Norte 21 Nordeste 0 -- -- 96
2019-11-10 01:00:00 13.2 8 Nordeste 20 Nordeste 0 -- -- 97
2019-11-10 00:00:00 13.1 6 Nordeste 29 Nordeste 0.2 -- -- 100
2019-11-09 23:00:00 13.4 9 Nordeste 24 Norte 0.8 -- -- 100
2019-11-09 22:00:00 13.6 11 Norte 20 Nordeste 0 -- -- 95
2019-11-09 21:00:00 13.6 9 Norte 28 Norte 0 -- -- 96
2019-11-09 20:00:00 13.4 10 Norte 24 Nordeste 0.2 -- -- 99
2019-11-09 19:00:00 13.7 12 Nordeste 28 Nordeste 0.4 -- -- 98
2019-11-09 18:00:00 14.1 12 Norte 25 Nordeste 0 -- -- 87
2019-11-09 17:00:00 14.2 13 Nordeste 27 Norte 0 -- -- 89
2019-11-09 16:00:00 13.9 11 Nordeste 32 Este 0 -- -- 95
2019-11-09 15:00:00 15.3 14 Norte 31 Norte 0 -- -- 84
2019-11-09 14:00:00 15.6 15 Nordeste 28 Nordeste 0.4 -- -- 86
2019-11-09 13:00:00 13.9 15 Norte 30 Nordeste 0.2 -- -- 96
2019-11-09 12:00:00 14.6 10 Nordeste 31 Nordeste 0 -- -- 97
2019-11-09 11:00:00 14.8 15 Norte 32 Norte 0.2 -- -- 99
2019-11-09 10:00:00 14.2 17 Norte 27 Norte 1.2 -- -- 99
2019-11-09 09:00:00 14.5 5 Norte 20 Norte 0.6 -- -- 99
2019-11-09 08:00:00 13.7 8 Norte 22 Norte 0 -- -- 90
2019-11-09 07:00:00 13.9 16 Norte 29 Norte 0 -- -- 95
2019-11-09 06:00:00 14 10 Nordeste 26 Nordeste 0 -- -- 95
2019-11-09 05:00:00 14 8 Nordeste 21 Norte 0 -- -- 92
2019-11-09 04:00:00 13.8 7 Nordeste 21 Nordeste 0 -- -- 91
2019-11-09 03:00:00 13.6 4 Nordeste 14 Nordeste 0 -- -- 89
2019-11-09 02:00:00 13.5 4 Nordeste 17 Nordeste 0 -- -- 88
2019-11-09 01:00:00 13.6 6 Nordeste 14 Nordeste 0 -- -- 90
2019-11-09 00:00:00 13.6 7 Nordeste 18 Nordeste 0 -- -- 86
2019-11-08 23:00:00 13.6 4 Nordeste 19 Nordeste 0 -- -- 90
2019-11-08 22:00:00 13.7 6 Nordeste 14 Nordeste 0.2 -- -- 89
2019-11-08 21:00:00 13.9 3 Nordeste 18 Norte 0 -- -- 87
2019-11-08 20:00:00 13.8 7 Norte 25 Norte 0 -- -- 89
2019-11-08 19:00:00 14.2 8 Norte 15 Nordeste 0 -- -- 97
2019-11-08 18:00:00 14.2 11 Nordeste 28 Nordeste 0 -- -- 93
2019-11-08 17:00:00 14.7 9 Nordeste 28 Norte 0 -- -- 89
2019-11-08 16:00:00 14.5 15 Nordeste 35 Norte 0 -- -- 97
2019-11-08 15:00:00 15 14 Nordeste 33 Norte 0 -- -- 100
2019-11-08 14:00:00 15.8 17 Norte 36 Norte 0 -- -- 100
2019-11-08 13:00:00 16.1 11 Nordeste 29 Nordeste 1 -- -- 100
2019-11-08 12:00:00 16.3 12 Nordeste 29 Este 0.2 -- -- 100
2019-11-08 11:00:00 16.1 11 Nordeste 27 Nordeste 0.8 -- -- 100
2019-11-08 10:00:00 16.3 10 Este 23 Sudeste 0.2 -- -- 100
2019-11-08 09:00:00 15.3 6 Nordeste 17 Este 0 -- -- 100
2019-11-08 08:00:00 14.9 4 Nordeste 23 Nordeste 0.4 -- -- 100
2019-11-08 07:00:00 14.6 4 Nordeste 22 Nordeste 0.8 -- -- 100
2019-11-08 06:00:00 14.5 8 Nordeste 19 Nordeste 0 -- -- 100
2019-11-08 05:00:00 14.2 5 Nordeste 16 Norte 0.8 -- -- 100
2019-11-08 04:00:00 14.2 5 Nordeste 19 Nordeste 0 -- -- 100
2019-11-08 03:00:00 14.5 9 Nordeste 22 Norte 0.4 -- -- 100
2019-11-08 02:00:00 14.7 7 Nordeste 23 Nordeste 0.8 -- -- 100
2019-11-08 01:00:00 14.8 10 Nordeste 26 Nordeste 0.4 -- -- 100
2019-11-08 00:00:00 15 11 Nordeste 26 Nordeste 0.4 -- -- 100
2019-11-07 23:00:00 15 8 Nordeste 17 Nordeste 1 -- -- 100
2019-11-07 22:00:00 14.7 11 Nordeste 21 Nordeste 1 -- -- 100
2019-11-07 21:00:00 14.8 4 Este 17 Nordeste 0 -- -- 100
2019-11-07 20:00:00 14.6 0 Calma 24 Nordeste 0 -- -- 100
2019-11-07 19:00:00 14.6 9 Nordeste 23 Nordeste 0.2 -- -- 100
2019-11-07 18:00:00 14.9 13 Nordeste 28 Este 0 -- -- 100
2019-11-07 17:00:00 15.4 13 Nordeste 29 Nordeste 0 -- -- 100
2019-11-07 16:00:00 16.5 14 Nordeste 28 Este 0 -- -- 94
2019-11-07 15:00:00 16.9 12 Nordeste 29 Este 0 -- -- 93
2019-11-07 14:00:00 16.3 14 Norte 26 Este 0 -- -- 92
2019-11-07 13:00:00 16.7 10 Nordeste 25 Norte 0 -- -- 93
2019-11-07 12:00:00 15.2 13 Nordeste 29 Nordeste 0.6 -- -- 100
2019-11-07 11:00:00 15.5 12 Nordeste 25 Nordeste 0 -- -- 98
2019-11-07 10:00:00 14.8 8 Nordeste 27 Norte 0 -- -- 99
2019-11-07 09:00:00 14.3 7 Nordeste 18 Nordeste 0.4 -- -- 99
2019-11-07 08:00:00 13.8 7 Norte 14 Norte 0.2 -- -- 99
2019-11-07 07:00:00 12.3 6 Noroeste 17 Norte 0 -- -- 99
2019-11-07 06:00:00 13.1 5 Norte 14 Norte 0.2 -- -- 98
2019-11-07 05:00:00 13.6 7 Norte 21 Nordeste 0 -- -- 100
2019-11-07 04:00:00 13.7 10 Norte 25 Nordeste 0.8 -- -- 100
2019-11-07 03:00:00 13.7 6 Norte 14 Nordeste 0 -- -- 100
2019-11-07 02:00:00 13.5 6 Norte 18 Nordeste 0 -- -- 100
2019-11-07 01:00:00 13.4 4 Norte 22 Nordeste 0 -- -- 100
2019-11-07 00:00:00 13.5 7 Norte 23 Nordeste 0.6 -- -- 100
2019-11-06 23:00:00 14 9 Nordeste 19 Nordeste 0 -- -- 100
2019-11-06 22:00:00 13.9 5 Norte 21 Norte 0.4 -- -- 100
2019-11-06 21:00:00 13.3 8 Norte 32 Norte 1.4 -- -- 100
2019-11-06 20:00:00 14.2 0 Calma 22 Norte 0 -- -- 97
2019-11-06 19:00:00 14.2 6 Norte 19 Norte 0 -- -- 95
2019-11-06 18:00:00 14.3 7 Norte 16 Norte 0 -- -- 93
2019-11-06 17:00:00 14.6 8 Norte 19 Norte 0 -- -- 96
2019-11-06 16:00:00 14.9 7 Noroeste 19 Noroeste 0 -- -- 95
2019-11-06 15:00:00 14.7 6 Noroeste 29 Norte 0 -- -- 93
2019-11-06 14:00:00 14.9 11 Norte 24 Norte 0.4 -- -- 93
2019-11-06 13:00:00 14.5 9 Norte 26 Noroeste 0.2 -- -- 94
2019-11-06 12:00:00 15.7 14 Norte 28 Norte 0 -- -- 90
2019-11-06 11:00:00 14.2 10 Norte 26 Norte 0.4 -- -- 97
2019-11-06 10:00:00 15.3 4 Norte 22 Norte 0 -- -- 88
2019-11-06 09:00:00 13.9 9 Norte 20 Norte 0.2 -- -- 95
2019-11-06 08:00:00 12.9 7 Norte 26 Norte 0.6 -- -- 99
2019-11-06 07:00:00 12.9 8 Noroeste 21 Noroeste 0 -- -- 97
2019-11-06 06:00:00 12.4 9 Noroeste 22 Norte 0 -- -- 94
2019-11-06 05:00:00 13.1 9 Norte 26 Norte 0.4 -- -- 99
2019-11-06 04:00:00 13.6 13 Norte 27 Norte 1.4 -- -- 100
2019-11-06 03:00:00 13.7 9 Norte 18 Norte 0 -- -- 98
2019-11-06 02:00:00 13.3 7 Noroeste 20 Norte 0 -- -- 99
2019-11-06 01:00:00 13.5 9 Noroeste 19 Noroeste 0.2 -- -- 100
2019-11-06 00:00:00 13.3 9 Noroeste 22 Noroeste 0.2 -- -- 100
2019-11-05 23:00:00 13.9 12 Norte 25 Norte 2.6 -- -- 100
2019-11-05 22:00:00 14.4 15 Norte 33 Norte 4.4 -- -- 100
2019-11-05 21:00:00 15.1 16 Norte 34 Nordeste 5.6 -- -- 100
2019-11-05 20:00:00 15.4 14 Norte 32 Norte 2.4 -- -- 100
2019-11-05 19:00:00 15 17 Norte 31 Norte 2.6 -- -- 100
2019-11-05 18:00:00 15 13 Noroeste 30 Noroeste 2.4 -- -- 100
2019-11-05 17:00:00 15.8 16 Norte 28 Norte 0 -- -- 95
2019-11-05 16:00:00 17.2 11 Noroeste 27 Noroeste 0 -- -- 84
2019-11-05 15:00:00 17.1 14 Noroeste 31 Noroeste 0 -- -- 82
2019-11-05 14:00:00 16.9 15 Noroeste 32 Noroeste 0 -- -- 88
2019-11-05 13:00:00 18.2 13 Norte 28 Norte 0 -- -- 83
2019-11-05 12:00:00 18.2 12 Noroeste 26 Noroeste 0 -- -- 85
2019-11-05 11:00:00 18.4 13 Noroeste 25 Noroeste 0 -- -- 82
2019-11-05 10:00:00 17 14 Norte 28 Norte 0 -- -- 93
2019-11-05 09:00:00 17 8 Oeste 20 Oeste 0 -- -- 89
2019-11-05 08:00:00 15.4 8 Oeste 19 Noroeste 0 -- -- 92
2019-11-05 07:00:00 14.9 8 Noroeste 23 Noroeste 0 -- -- 94
2019-11-05 06:00:00 15 9 Noroeste 24 Oeste 0 -- -- 92
2019-11-05 05:00:00 15.3 12 Noroeste 26 Noroeste 0 -- -- 98
2019-11-05 04:00:00 15.3 13 Noroeste 32 Noroeste 0.2 -- -- 97
2019-11-05 03:00:00 15 8 Oeste 19 Sudoeste 0 -- -- 99
2019-11-05 02:00:00 15.1 9 Noroeste 29 Norte 0 -- -- 100
2019-11-05 01:00:00 15.2 12 Noroeste 31 Norte 0 -- -- 100
2019-11-05 00:00:00 15.4 15 Norte 35 Norte 0.6 -- -- 100
2019-11-04 23:00:00 15.8 14 Noroeste 34 Norte 0.2 -- -- 100
2019-11-04 22:00:00 15.8 12 Noroeste 29 Noroeste 0 -- -- 99
2019-11-04 21:00:00 15.7 9 Noroeste 27 Noroeste 0 -- -- 97
2019-11-04 20:00:00 16.1 9 Noroeste 21 Noroeste 0 -- -- 94
2019-11-04 19:00:00 16 9 Noroeste 21 Sudoeste 0 -- -- 88
2019-11-04 18:00:00 16 8 Noroeste 23 Noroeste 0 -- -- 91
2019-11-04 17:00:00 16.9 9 Noroeste 19 Norte 0 -- -- 90
2019-11-04 16:00:00 18.1 12 Noroeste 28 Oeste 0 -- -- 80
2019-11-04 15:00:00 18.7 9 Noroeste 23 Norte 0 -- -- 75
2019-11-04 14:00:00 18.2 11 Norte 19 Norte 0 -- -- 86
2019-11-04 13:00:00 18.6 9 Norte 22 Norte 0 -- -- 79
2019-11-04 12:00:00 17.6 11 Norte 27 Norte 0 -- -- 87
2019-11-04 11:00:00 16.1 13 Norte 26 Noroeste 0.2 -- -- 99
2019-11-04 10:00:00 15.9 10 Norte 21 Norte 0 -- -- 98
2019-11-04 09:00:00 15.9 6 Noroeste 22 Noroeste 0 -- -- 100
2019-11-04 08:00:00 15.2 14 Norte 27 Noroeste 0.6 -- -- 100
2019-11-04 07:00:00 15.4 6 Noroeste 21 Noroeste 0 -- -- 96
2019-11-04 06:00:00 15.5 9 Noroeste 20 Noroeste 0 -- -- 91
2019-11-04 05:00:00 15.3 4 Oeste 14 Noroeste 0 -- -- 90
2019-11-04 04:00:00 15 6 Noroeste 15 Oeste 0 -- -- 92
2019-11-04 03:00:00 14.8 8 Noroeste 18 Noroeste 0 -- -- 97
2019-11-04 02:00:00 15.2 12 Norte 26 Norte 0 -- -- 98
2019-11-04 01:00:00 15.9 8 Noroeste 18 Noroeste 0 -- -- 94
2019-11-04 00:00:00 15.4 6 Oeste 19 Noroeste 0 -- -- 92
2019-11-03 23:00:00 15.9 9 Noroeste 18 Norte 0 -- -- 97
2019-11-03 22:00:00 16.2 8 Noroeste 19 Oeste 0 -- -- 89
2019-11-03 21:00:00 15.9 8 Oeste 18 Oeste 0 -- -- 90
2019-11-03 20:00:00 16.7 11 Noroeste 25 Oeste 0 -- -- 85
2019-11-03 19:00:00 17.1 9 Oeste 24 Noroeste 0 -- -- 83
2019-11-03 18:00:00 17 8 Norte 14 Norte 0 -- -- 93
2019-11-03 17:00:00 19.2 8 Norte 14 Nordeste 0 -- -- 84
2019-11-03 16:00:00 19.4 8 Norte 21 Nordeste 0 -- -- 89
2019-11-03 15:00:00 22 10 Norte 22 Norte 0 -- -- 73
2019-11-03 14:00:00 21.6 11 Norte 24 Norte 0 -- -- 73
2019-11-03 13:00:00 21.5 14 Norte 24 Norte 0 -- -- 74
2019-11-03 12:00:00 21.9 11 Nordeste 19 Nordeste 0 -- -- 77
2019-11-03 11:00:00 22.9 9 Nordeste 14 Nordeste 0 -- -- 74
2019-11-03 10:00:00 22.4 3 Nordeste 12 Nordeste 0 -- -- 74
2019-11-03 09:00:00 21.7 4 Nordeste 13 Noroeste 0 -- -- 75
2019-11-03 08:00:00 16.3 3 Sudoeste 7 Norte 0 -- -- 93
2019-11-03 07:00:00 16.3 3 Oeste 11 Noroeste 0 -- -- 74
2019-11-03 06:00:00 17 5 Oeste 12 Noroeste 0 -- -- 70
2019-11-03 05:00:00 16.6 5 Noroeste 10 Noroeste 0 -- -- 71
2019-11-03 04:00:00 15.6 6 Oeste 10 Oeste 0 -- -- 75
2019-11-03 03:00:00 16.5 4 Noroeste 10 Noroeste 0 -- -- 68
2019-11-03 02:00:00 17.3 5 Oeste 11 Sudoeste 0 -- -- 63
2019-11-03 01:00:00 18.2 4 Oeste 10 Noroeste 0 -- -- 60
2019-11-03 00:00:00 18.4 4 Oeste 13 Noroeste 0 -- -- 62
2019-11-02 23:00:00 18.7 4 Oeste 13 Sudoeste 0 -- -- 61
2019-11-02 22:00:00 19.1 3 Sudoeste 10 Sudeste 0 -- -- 59
2019-11-02 21:00:00 19.1 5 Oeste 11 Norte 0 -- -- 57
2019-11-02 20:00:00 20.1 7 Sur 13 Sudeste 0 -- -- 55
2019-11-02 19:00:00 19.2 2 Sudeste 13 Sudeste 0 -- -- 59
2019-11-02 18:00:00 20.9 4 Sudeste 18 Sur 0 -- -- 52
2019-11-02 17:00:00 24.7 7 Este 22 Nordeste 0 -- -- 45
2019-11-02 16:00:00 25.5 7 Este 32 Este 0 -- -- 48
2019-11-02 15:00:00 25.9 8 Este 30 Nordeste 0 -- -- 44
2019-11-02 14:00:00 26.2 10 Este 26 Este 0 -- -- 46
2019-11-02 13:00:00 26.3 8 Este 20 Este 0 -- -- 46
2019-11-02 12:00:00 26.6 8 Este 22 Este 0 -- -- 43
2019-11-02 11:00:00 26.1 9 Este 20 Este 0 -- -- 45
2019-11-02 10:00:00 24.9 8 Sudeste 28 Este 0 -- -- 51
2019-11-02 09:00:00 22.9 8 Sudeste 19 Sudeste 0 -- -- 59
2019-11-02 08:00:00 18.9 6 Sudeste 16 Sur 0 -- -- 76
2019-11-02 07:00:00 16.1 7 Sudoeste 11 Oeste 0 -- -- 98
2019-11-02 06:00:00 16.6 5 Oeste 12 Sur 0 -- -- 92
2019-11-02 05:00:00 16.1 4 Sudoeste 13 Sudoeste 0 -- -- 95
2019-11-02 04:00:00 17 4 Sudeste 18 Sudeste 0 -- -- 87
2019-11-02 03:00:00 16.1 5 Sudoeste 12 Sur 0 -- -- 98
2019-11-02 02:00:00 16.6 2 Oeste 15 Norte 0 -- -- 98
2019-11-02 01:00:00 17.1 4 Nordeste 22 Norte 0 -- -- 99
2019-11-02 00:00:00 16.4 6 Noroeste 22 Noroeste 0 -- -- 97
2019-11-01 23:00:00 16.3 6 Noroeste 15 Noroeste 0 -- -- 99
2019-11-01 22:00:00 16.6 5 Noroeste 17 Oeste 0 -- -- 98
2019-11-01 21:00:00 15.8 5 Oeste 10 Noroeste 0 -- -- 96
2019-11-01 20:00:00 16.4 2 Sudoeste 10 Sur 0 -- -- 92
2019-11-01 19:00:00 14.9 5 Oeste 16 Sudoeste 0 -- -- 97
2019-11-01 18:00:00 17.1 5 Sudoeste 18 Nordeste 0 -- -- 96
2019-11-01 17:00:00 22.6 4 Sur 12 Sudoeste 0 -- -- 73
2019-11-01 16:00:00 21.4 5 Nordeste 18 Nordeste 0 -- -- 80
2019-11-01 15:00:00 20.6 9 Norte 17 Nordeste 0 -- -- 84
2019-11-01 14:00:00 21 9 Nordeste 19 Nordeste 0 -- -- 82
2019-11-01 13:00:00 21.6 8 Este 18 Nordeste 0 -- -- 77
2019-11-01 12:00:00 21 8 Nordeste 20 Nordeste 0 -- -- 84
2019-11-01 11:00:00 20.2 8 Este 15 Este 0 -- -- 98
2019-11-01 10:00:00 17.4 8 Este 21 Nordeste 0.2 -- -- 100
2019-11-01 09:00:00 16.8 6 Sudeste 20 Este 0.2 -- -- 100
2019-11-01 08:00:00 16.7 8 Nordeste 19 Nordeste 0 -- -- 100
2019-11-01 07:00:00 16.5 9 Este 24 Nordeste 0.2 -- -- 100
2019-11-01 06:00:00 16.8 8 Este 21 Nordeste 0 -- -- 100
2019-11-01 05:00:00 16.9 11 Nordeste 27 Este 0.2 -- -- 100
2019-11-01 04:00:00 17 9 Nordeste 21 Norte 0 -- -- 100
2019-11-01 03:00:00 17 8 Este 21 Este 0 -- -- 100
2019-11-01 02:00:00 17 8 Este 23 Este 0 -- -- 100
2019-11-01 01:00:00 16.7 9 Este 21 Nordeste 0 -- -- 100
2019-11-01 00:00:00 16.8 8 Este 24 Este 0 -- -- 100
2019-10-31 23:00:00 17 6 Este 14 Nordeste 0 -- -- 100
2019-10-31 22:00:00 17.2 7 Nordeste 15 Nordeste 0 -- -- 99
2019-10-31 21:00:00 17.2 4 Nordeste 17 Sudeste 0 -- -- 97
2019-10-31 20:00:00 17.1 8 Este 18 Sur 0 -- -- 97
2019-10-31 19:00:00 17 4 Nordeste 13 Norte 0 -- -- 96
2019-10-31 18:00:00 17.9 4 Este 12 Nordeste 0 -- -- 91
2019-10-31 17:00:00 20.4 6 Norte 15 Norte 0 -- -- 78
2019-10-31 16:00:00 21.8 4 Sudeste 14 Nordeste 0 -- -- 73
2019-10-31 15:00:00 21.3 4 Nordeste 18 Nordeste 0 -- -- 77
2019-10-31 14:00:00 22.1 7 Nordeste 17 Este 0 -- -- 72
2019-10-31 13:00:00 22.7 7 Este 18 Este 0 -- -- 72
2019-10-31 12:00:00 21.5 6 Nordeste 18 Nordeste 0 -- -- 77
2019-10-31 11:00:00 21.4 4 Norte 16 Este 0 -- -- 76
2019-10-31 10:00:00 18.8 3 Norte 13 Nordeste 0 -- -- 91
2019-10-31 09:00:00 17.8 4 Nordeste 12 Norte 0 -- -- 97
2019-10-31 08:00:00 16.9 2 Este 13 Sudeste 0 -- -- 98
2019-10-31 07:00:00 15.1 4 Oeste 12 Sudoeste 0 -- -- 98
2019-10-31 06:00:00 16.3 3 Sudeste 13 Oeste 0 -- -- 93
2019-10-31 05:00:00 16.5 6 Oeste 20 Nordeste 0 -- -- 87
2019-10-31 04:00:00 17.8 4 Este 17 Este 0 -- -- 84
2019-10-31 03:00:00 17.1 3 Oeste 13 Este 0 -- -- 83
2019-10-31 02:00:00 17 4 Sudeste 13 Sur 0 -- -- 88
2019-10-31 01:00:00 16.5 3 Sur 8 Sudoeste 0 -- -- 89
2019-10-31 00:00:00 16.2 4 Sudoeste 16 Sudeste 0 -- -- 86
2019-10-30 23:00:00 16 4 Sudoeste 8 Sudoeste 0 -- -- 87
2019-10-30 22:00:00 17 2 Sudoeste 9 Sur 0 -- -- 82
2019-10-30 21:00:00 16.5 2 Oeste 9 Noroeste 0 -- -- 85
2019-10-30 20:00:00 18.6 4 Sudeste 10 Oeste 0 -- -- 75
2019-10-30 19:00:00 17.5 4 Oeste 10 Oeste 0 -- -- 80
2019-10-30 18:00:00 18.3 2 Noroeste 7 Nordeste 0 -- -- 82
2019-10-30 17:00:00 23.8 4 Norte 10 Nordeste 0 -- -- 68
2019-10-30 16:00:00 25.2 5 Este 12 Nordeste 0 -- -- 64
2019-10-30 15:00:00 26 6 Este 15 Este 0 -- -- 60
2019-10-30 14:00:00 25.4 6 Nordeste 18 Este 0 -- -- 58
2019-10-30 13:00:00 25.4 8 Este 17 Este 0 -- -- 65
2019-10-30 12:00:00 24.9 6 Este 14 Nordeste 0 -- -- 61
2019-10-30 11:00:00 25.5 7 Nordeste 13 Nordeste 0 -- -- 60
2019-10-30 10:00:00 25.4 0 Calma 12 Este 0 -- -- 55
2019-10-30 09:00:00 25.6 3 Norte 11 Noroeste 0 -- -- 53
2019-10-30 08:00:00 21 2 Oeste 11 Oeste 0 -- -- 70
2019-10-30 07:00:00 18.8 8 Oeste 10 Oeste 0 -- -- 73
2019-10-30 06:00:00 19.1 7 Noroeste 11 Noroeste 0 -- -- 73
2019-10-30 05:00:00 20.3 6 Oeste 16 Noroeste 0 -- -- 68
2019-10-30 04:00:00 19.3 5 Oeste 12 Oeste 0 -- -- 72
2019-10-30 03:00:00 19.4 8 Oeste 11 Oeste 0 -- -- 72
2019-10-30 02:00:00 19.3 6 Oeste 10 Oeste 0 -- -- 72
2019-10-30 01:00:00 19.4 8 Oeste 10 Oeste 0 -- -- 71
2019-10-30 00:00:00 19.2 6 Oeste 12 Oeste 0 -- -- 69
2019-10-29 23:00:00 19.3 8 Oeste 10 Oeste 0 -- -- 66
2019-10-29 22:00:00 19.6 7 Oeste 10 Oeste 0 -- -- 64
2019-10-29 21:00:00 19.4 3 Oeste 6 Oeste 0 -- -- 66
2019-10-29 20:00:00 20.3 4 Noroeste 10 Noroeste 0 -- -- 68
2019-10-29 19:00:00 19.8 4 Oeste 8 Noroeste 0 -- -- 68
2019-10-29 18:00:00 20.9 5 Oeste 10 Sudeste 0 -- -- 75
2019-10-29 17:00:00 25.2 5 Norte 10 Norte 0 -- -- 62
2019-10-29 16:00:00 26.7 5 Norte 12 Nordeste 0 -- -- 57
2019-10-29 15:00:00 26.6 8 Nordeste 17 Norte 0 -- -- 57
2019-10-29 14:00:00 27.2 9 Norte 22 Nordeste 0 -- -- 54
2019-10-29 13:00:00 27.2 9 Norte 16 Este 0 -- -- 55
2019-10-29 12:00:00 26.8 8 Nordeste 15 Nordeste 0 -- -- 54
2019-10-29 11:00:00 26.3 8 Nordeste 15 Nordeste 0 -- -- 56
2019-10-29 10:00:00 26.8 4 Nordeste 9 Este 0 -- -- 52
2019-10-29 09:00:00 26.6 3 Este 4 Este 0 -- -- 52
2019-10-29 08:00:00 20.5 0 Calma 7 Oeste 0 -- -- 73
2019-10-29 07:00:00 17.4 4 Oeste 9 Oeste 0 -- -- 80
2019-10-29 06:00:00 17.6 5 Oeste 9 Oeste 0 -- -- 78
2019-10-29 05:00:00 18.3 8 Oeste 9 Noroeste 0 -- -- 75
2019-10-29 04:00:00 18.5 4 Sudoeste 9 Oeste 0 -- -- 77
2019-10-29 03:00:00 17.8 4 Sudoeste 7 Noroeste 0 -- -- 78
2019-10-29 02:00:00 18.8 4 Oeste 12 Oeste 0 -- -- 72
2019-10-29 01:00:00 19.2 4 Oeste 7 Noroeste 0 -- -- 71
2019-10-29 00:00:00 18.1 5 Sudoeste 6 Noroeste 0 -- -- 80
2019-10-28 23:00:00 18.1 3 Oeste 8 Oeste 0 -- -- 82
2019-10-28 22:00:00 18 4 Oeste 10 Noroeste 0 -- -- 84
2019-10-28 21:00:00 18.4 5 Noroeste 10 Noroeste 0 -- -- 78
2019-10-28 20:00:00 18.8 3 Sudoeste 8 Sudoeste 0 -- -- 83
2019-10-28 19:00:00 18.5 4 Sudoeste 8 Oeste 0 -- -- 84
2019-10-28 18:00:00 20.9 5 Oeste 9 Norte 0 -- -- 75
2019-10-28 17:00:00 26 5 Nordeste 13 Nordeste 0 -- -- 56
2019-10-28 16:00:00 27.2 7 Este 19 Este 0 -- -- 51
2019-10-28 15:00:00 27.7 9 Sudeste 17 Nordeste 0 -- -- 51
2019-10-28 14:00:00 28.6 9 Este 23 Este 0 -- -- 49
2019-10-28 13:00:00 27.8 9 Sudeste 21 Sudeste 0 -- -- 53
2019-10-28 12:00:00 27.8 10 Este 18 Este 0 -- -- 52
2019-10-28 11:00:00 26 9 Este 17 Este 0 -- -- 57
2019-10-28 10:00:00 25.8 8 Sudeste 15 Sudeste 0 -- -- 58
2019-10-28 09:00:00 23.9 5 Sudeste 12 Sudeste 0 -- -- 62
2019-10-28 08:00:00 22 3 Sudoeste 11 Sudoeste 0 -- -- 64
2019-10-28 07:00:00 18.7 5 Sudoeste 8 Sudoeste 0 -- -- 76
2019-10-28 06:00:00 19.9 6 Sudoeste 9 Sur 0 -- -- 71
2019-10-28 05:00:00 18.5 5 Sudoeste 8 Oeste 0 -- -- 79
2019-10-28 04:00:00 19.3 6 Oeste 9 Oeste 0 -- -- 75
2019-10-28 03:00:00 19.7 4 Oeste 9 Oeste 0 -- -- 75
2019-10-28 02:00:00 21.2 4 Oeste 11 Oeste 0 -- -- 68
2019-10-28 01:00:00 20.3 5 Oeste 9 Oeste 0 -- -- 72
2019-10-28 00:00:00 22.3 8 Oeste 12 Oeste 0 -- -- 64
2019-10-27 23:00:00 22.7 5 Sudoeste 19 Oeste 0 -- -- 64
2019-10-27 22:00:00 22.5 10 Noroeste 16 Noroeste 0 -- -- 65
2019-10-27 21:00:00 21.9 4 Sudoeste 9 Oeste 0 -- -- 68
2019-10-27 20:00:00 22.3 5 Oeste 12 Sudoeste 0 -- -- 65
2019-10-27 19:00:00 22.9 8 Noroeste 13 Oeste 0 -- -- 67
2019-10-27 18:00:00 22.8 7 Sudoeste 15 Oeste 0 -- -- 73
2019-10-27 17:00:00 23.1 4 Sudoeste 8 Sudoeste 0 -- -- 75
2019-10-27 16:00:00 24 6 Sudoeste 16 Noroeste 0 -- -- 68
2019-10-27 15:00:00 24.3 4 Norte 11 Nordeste 0 -- -- 68
2019-10-27 14:00:00 26.5 5 Este 13 Este 0 -- -- 60
2019-10-27 13:00:00 25.8 5 Este 11 Este 0 -- -- 64
2019-10-27 12:00:00 24.7 3 Este 11 Sudeste 0 -- -- 71
2019-10-27 11:00:00 25.3 5 Noroeste 22 Noroeste 0 -- -- 62
2019-10-27 10:00:00 24.3 3 Sudoeste 9 Sur 0 -- -- 65
2019-10-27 09:00:00 23.7 0 Calma 7 Noroeste 0 -- -- 68
2019-10-27 08:00:00 22.3 6 Oeste 10 Noroeste 0 -- -- 74
2019-10-27 07:00:00 22.1 6 Noroeste 11 Noroeste 0 -- -- 71
2019-10-27 06:00:00 22.5 5 Sudoeste 9 Sudoeste 0 -- -- 68
2019-10-27 05:00:00 21.2 5 Oeste 6 Oeste 0 -- -- 75
2019-10-27 04:00:00 22.3 6 Oeste 11 Noroeste 0 -- -- 69
2019-10-27 03:00:00 24 6 Sudoeste 14 Sudoeste 0 -- -- 63
2019-10-27 02:00:00 23.3 8 Sur 13 Sur 0 -- -- 65
2019-10-27 01:00:00 23.1 5 Sur 15 Sur 0 -- -- 66
2019-10-27 00:00:00 21.9 7 Sur 15 Sur 0 -- -- 74
2019-10-26 23:00:00 20.8 6 Sur 10 Sudeste 0 -- -- 82
2019-10-26 22:00:00 20.3 4 Noroeste 7 Norte 0 -- -- 81
2019-10-26 21:00:00 20 5 Sudoeste 8 Sudoeste 0 -- -- 82
2019-10-26 20:00:00 20.5 4 Oeste 8 Sudoeste 0 -- -- 78
2019-10-26 19:00:00 22.1 3 Sur 6 Sudoeste 0 -- -- 74
2019-10-26 18:00:00 23.7 4 Este 7 Este 0 -- -- 68
2019-10-26 17:00:00 24.1 3 Este 10 Nordeste 0 -- -- 64
2019-10-26 16:00:00 20.8 2 Nordeste 26 Noroeste 0 -- -- 84
2019-10-26 15:00:00 20.5 14 Oeste 30 Noroeste 0.2 -- -- 80
2019-10-26 14:00:00 24.3 3 Noroeste 12 Este 0 -- -- 61
2019-10-26 13:00:00 26.9 8 Este 13 Este 0 -- -- 49
2019-10-26 12:00:00 24.7 2 Sudeste 12 Este 0 -- -- 53
2019-10-26 11:00:00 21.7 5 Sur 33 Oeste 0 -- -- 58
2019-10-26 10:00:00 21.7 17 Noroeste 38 Noroeste 0 -- -- 49
2019-10-26 09:00:00 22 6 Oeste 10 Sudoeste 0 -- -- 60
2019-10-26 08:00:00 20.6 3 Oeste 25 Norte 0 -- -- 60
2019-10-26 07:00:00 21.9 4 Oeste 8 Oeste 0 -- -- 70
2019-10-26 06:00:00 22.5 4 Noroeste 11 Oeste 0 -- -- 69
2019-10-26 05:00:00 22.4 4 Oeste 10 Oeste 0 -- -- 69
2019-10-26 04:00:00 21.4 3 Oeste 9 Oeste 0 -- -- 64
2019-10-26 03:00:00 22 2 Sudoeste 10 Oeste 0 -- -- 61
2019-10-26 02:00:00 21.8 3 Noroeste 12 Sudoeste 0 -- -- 68
2019-10-26 01:00:00 21.9 4 Sudoeste 10 Oeste 0 -- -- 65
2019-10-26 00:00:00 22.8 3 Noroeste 16 Sur 0 -- -- 64
2019-10-25 23:00:00 24.7 5 Sur 21 Sudoeste 0 -- -- 55
2019-10-25 22:00:00 26.5 5 Sudoeste 21 Sur 0 -- -- 50
2019-10-25 21:00:00 25.6 6 Sudoeste 15 Sur 0 -- -- 50
2019-10-25 20:00:00 24 3 Este 23 Sudoeste 0 -- -- 53
2019-10-25 19:00:00 23.6 4 Norte 13 Norte 0 -- -- 61
2019-10-25 18:00:00 25.2 3 Norte 13 Sudoeste 0 -- -- 61
2019-10-25 17:00:00 23 3 Este 12 Sur 0 -- -- 69
2019-10-25 16:00:00 22.7 4 Nordeste 10 Sudeste 0 -- -- 71
2019-10-25 15:00:00 25.2 4 Nordeste 9 Norte 0 -- -- 59
2019-10-25 14:00:00 25.2 4 Sudeste 10 Este 0 -- -- 50
2019-10-25 13:00:00 22.7 4 Este 11 Nordeste 0 -- -- 64
2019-10-25 12:00:00 23.5 3 Nordeste 8 Este -- -- -- 43
2019-10-25 11:00:00 23.3 3 Este 9 Nordeste 0 -- -- 50
2019-10-25 10:00:00 22.4 4 Oeste 9 Sur 0 -- -- 50
2019-10-25 09:00:00 20 4 Sudoeste 13 Sudoeste 0 -- -- 53
2019-10-25 08:00:00 18.3 4 Sudoeste 11 Sudoeste 0 -- -- 52
2019-10-25 07:00:00 15.1 2 Noroeste 7 Sudoeste 0 -- -- 60
2019-10-25 06:00:00 16.1 3 Sur 10 Sudoeste 0 -- -- 56
2019-10-25 05:00:00 14.2 3 Noroeste 10 Sudoeste 0 -- -- 69
2019-10-25 04:00:00 14.2 2 Oeste 12 Sudoeste 0 -- -- 68
2019-10-25 03:00:00 14.3 5 Sudoeste 10 Sudoeste 0 -- -- 63
2019-10-25 02:00:00 12.8 6 Oeste 11 Oeste 0 -- -- 75
2019-10-25 01:00:00 10.5 5 Noroeste 10 Sudoeste 0 -- -- 94
2019-10-25 00:00:00 12.6 6 Sudoeste 10 Sudoeste 0 -- -- 100
2019-10-24 23:00:00 12.7 5 Sudoeste 9 Sudoeste 0 -- -- 100
2019-10-24 22:00:00 12.1 4 Sur 8 Sudoeste 0 -- -- 98
2019-10-24 21:00:00 12.7 6 Sudoeste 9 Sudoeste 0 -- -- 96
2019-10-24 20:00:00 13.2 5 Sudoeste 8 Sudoeste 0 -- -- 92
2019-10-24 19:00:00 14.8 4 Sudeste 13 Nordeste 0 -- -- 83
2019-10-24 18:00:00 18.7 6 Este 13 Este 0 -- -- 69
2019-10-24 17:00:00 18.9 8 Este 16 Este 0 -- -- 72
2019-10-24 16:00:00 18.3 8 Este 21 Nordeste 0 -- -- 75
2019-10-24 15:00:00 18.9 11 Este 22 Este 0 -- -- 74
2019-10-24 14:00:00 19 12 Este 26 Nordeste 0 -- -- 71
2019-10-24 13:00:00 19 10 Este 22 Nordeste 0 -- -- 71
2019-10-24 12:00:00 18.9 9 Sudeste 21 Este 0 -- -- 69
2019-10-24 11:00:00 18.2 11 Sudeste 20 Sudeste 0 -- -- 69
2019-10-24 10:00:00 15.8 9 Sudeste 18 Este 0 -- -- 79
2019-10-24 09:00:00 14.3 7 Sudeste 12 Este 0 -- -- 89
2019-10-24 08:00:00 13.2 8 Sudeste 17 Este 0 -- -- 94
2019-10-24 07:00:00 13.7 5 Este 20 Este 0 -- -- 94
2019-10-24 06:00:00 13.8 7 Sudeste 12 Sudeste 0 -- -- 91
2019-10-24 05:00:00 13.7 6 Sudeste 16 Sudeste 0 -- -- 85
2019-10-24 04:00:00 12.5 5 Sur 15 Sur 0 -- -- 93
2019-10-24 03:00:00 13.2 8 Sur 14 Sudeste 0 -- -- 92
2019-10-24 02:00:00 12.5 5 Sur 10 Sudeste 0 -- -- 95
2019-10-24 01:00:00 13 4 Sur 7 Este 0 -- -- 93
2019-10-24 00:00:00 12.9 3 Sudeste 6 Este 0 -- -- 93
2019-10-23 23:00:00 13.8 0 Calma 10 Este 0 -- -- 90
2019-10-23 22:00:00 14 4 Este 12 Nordeste 0 -- -- 93
2019-10-23 21:00:00 14.1 6 Nordeste 14 Nordeste 0 -- -- 96
2019-10-23 20:00:00 14.4 5 Este 16 Nordeste 0 -- -- 94
2019-10-23 19:00:00 14.7 6 Este 18 Nordeste 0 -- -- 90
2019-10-23 18:00:00 15.1 6 Nordeste 17 Nordeste 0 -- -- 92
2019-10-23 17:00:00 15.8 10 Nordeste 18 Nordeste 0 -- -- 87
2019-10-23 16:00:00 16 10 Nordeste 19 Nordeste 0 -- -- 90
2019-10-23 15:00:00 18 10 Nordeste 24 Nordeste 0 -- -- 71
2019-10-23 14:00:00 15.9 8 Norte 19 Nordeste 0 -- -- 85
2019-10-23 13:00:00 16.3 7 Nordeste 17 Noroeste 0 -- -- 88
2019-10-23 12:00:00 15.5 9 Este 14 Este 0 -- -- 98
2019-10-23 11:00:00 13.7 5 Nordeste 17 Noroeste 1.4 -- -- 100
2019-10-23 10:00:00 13.4 3 Nordeste 18 Nordeste 2.4 -- -- 100
2019-10-23 09:00:00 13.9 4 Sudoeste 11 Nordeste 0 -- -- 100
2019-10-23 08:00:00 13.4 6 Nordeste 21 Nordeste 1.4 -- -- 100
2019-10-23 07:00:00 13.2 4 Norte 14 Noroeste 0 -- -- 100
2019-10-23 06:00:00 13.2 9 Norte 19 Norte 1.4 -- -- 100
2019-10-23 05:00:00 12.9 10 Noroeste 21 Norte 0.6 -- -- 98
2019-10-23 04:00:00 13.7 4 Noroeste 9 Noroeste 0 -- -- 97
2019-10-23 03:00:00 13.5 5 Noroeste 12 Norte 0 -- -- 94
2019-10-23 02:00:00 13.4 4 Noroeste 18 Norte 0 -- -- 96
2019-10-23 01:00:00 13.7 8 Noroeste 15 Norte 0 -- -- 96
2019-10-23 00:00:00 13.5 5 Noroeste 15 Noroeste 0 -- -- 89
2019-10-22 23:00:00 14.1 11 Norte 20 Norte 0 -- -- 93
2019-10-22 22:00:00 13.9 7 Norte 13 Norte 0 -- -- 93
2019-10-22 21:00:00 12.8 6 Oeste 16 Norte 0 -- -- 91
2019-10-22 20:00:00 13.5 4 Noroeste 15 Norte 0 -- -- 94
2019-10-22 19:00:00 14.4 7 Noroeste 17 Norte 0.2 -- -- 94
2019-10-22 18:00:00 14.5 10 Norte 21 Norte 0 -- -- 90
2019-10-22 17:00:00 15.9 8 Norte 24 Norte 0 -- -- 79
2019-10-22 16:00:00 16.5 13 Norte 27 Nordeste 0 -- -- 78
2019-10-22 15:00:00 15.9 15 Norte 24 Norte 0 -- -- 78
2019-10-22 14:00:00 16.7 14 Norte 27 Nordeste 0 -- -- 74
2019-10-22 13:00:00 16.3 11 Norte 29 Norte 0 -- -- 81
2019-10-22 12:00:00 16.1 10 Norte 22 Norte 0 -- -- 81
2019-10-22 11:00:00 17 9 Norte 18 Nordeste 0 -- -- 75
2019-10-22 10:00:00 14 6 Norte 22 Norte 0 -- -- 91
2019-10-22 09:00:00 13.2 8 Noroeste 18 Norte 0 -- -- 89
2019-10-22 08:00:00 12.2 7 Noroeste 19 Noroeste 0 -- -- 95
2019-10-22 07:00:00 12.6 6 Noroeste 23 Noroeste 1 -- -- 99
2019-10-22 06:00:00 12.6 8 Noroeste 17 Norte 0.6 -- -- 98
2019-10-22 05:00:00 12 7 Noroeste 14 Noroeste 0 -- -- 95
2019-10-22 04:00:00 12.5 7 Noroeste 18 Norte 0 -- -- 93
2019-10-22 03:00:00 13.3 6 Noroeste 17 Norte 0 -- -- 97
2019-10-22 02:00:00 12.9 7 Norte 25 Norte 0.8 -- -- 96
2019-10-22 01:00:00 13.7 8 Noroeste 15 Norte 0 -- -- 92
2019-10-22 00:00:00 13.2 8 Noroeste 15 Norte 0 -- -- 92
2019-10-21 23:00:00 13.7 9 Norte 18 Norte 0 -- -- 90
2019-10-21 22:00:00 13.3 6 Noroeste 14 Norte 0 -- -- 88
2019-10-21 21:00:00 13.8 6 Norte 19 Norte 0 -- -- 88
2019-10-21 20:00:00 14.2 9 Norte 19 Norte 0 -- -- 89
2019-10-21 19:00:00 14.6 9 Norte 23 Norte 0 -- -- 86
2019-10-21 18:00:00 14.8 12 Norte 24 Norte 0 -- -- 87
2019-10-21 17:00:00 15.3 11 Norte 28 Norte 0.6 -- -- 89
2019-10-21 16:00:00 16.1 9 Norte 24 Norte 0 -- -- 87
2019-10-21 15:00:00 16.8 12 Norte 24 Norte 0 -- -- 80
2019-10-21 14:00:00 16.4 11 Norte 23 Noroeste 0 -- -- 88
2019-10-21 13:00:00 16.1 10 Norte 24 Norte 0 -- -- 96
2019-10-21 12:00:00 14.9 6 Norte 23 Nordeste 1 -- -- 99
2019-10-21 11:00:00 14.7 11 Norte 23 Norte 0 -- -- 94
2019-10-21 10:00:00 15.3 9 Norte 20 Nordeste 0 -- -- 90
2019-10-21 09:00:00 14.4 7 Norte 16 Norte 0 -- -- 93
2019-10-21 08:00:00 13.6 5 Norte 15 Noroeste 0 -- -- 96
2019-10-21 07:00:00 13.6 7 Norte 16 Nordeste 0 -- -- 99
2019-10-21 06:00:00 13.8 8 Norte 16 Norte 0.8 -- -- 100
2019-10-21 05:00:00 13.4 5 Noroeste 14 Noroeste 0 -- -- 100
2019-10-21 04:00:00 13.8 7 Noroeste 15 Noroeste 0 -- -- 100
2019-10-21 03:00:00 14.1 7 Norte 16 Norte 0 -- -- 100
2019-10-21 02:00:00 14.4 8 Noroeste 16 Norte 0 -- -- 100
2019-10-21 01:00:00 14.4 8 Noroeste 14 Norte 0.2 -- -- 100
2019-10-21 00:00:00 14.5 6 Noroeste 15 Norte 0 -- -- 100
2019-10-20 23:00:00 14.7 6 Norte 17 Norte 0.6 -- -- 100
2019-10-20 22:00:00 14.8 6 Norte 21 Nordeste 2.8 -- -- 100
2019-10-20 21:00:00 15.3 5 Nordeste 19 Nordeste 1.6 -- -- 100
2019-10-20 20:00:00 15.6 6 Nordeste 23 Norte 2.6 -- -- 100
2019-10-20 19:00:00 15.6 7 Norte 24 Norte 3.4 -- -- 100
2019-10-20 18:00:00 15.8 9 Nordeste 24 Norte 7 -- -- 100
2019-10-20 17:00:00 16.4 11 Nordeste 27 Nordeste 3.2 -- -- 100
2019-10-20 16:00:00 16.9 12 Nordeste 24 Nordeste 3.8 -- -- 100
2019-10-20 15:00:00 17.7 8 Nordeste 19 Nordeste 0.4 -- -- 98
2019-10-20 14:00:00 19 8 Nordeste 21 Norte 0 -- -- 89
2019-10-20 13:00:00 20.2 10 Norte 19 Norte 0 -- -- 85
2019-10-20 12:00:00 21.9 8 Norte 15 Noroeste 0 -- -- 72
2019-10-20 11:00:00 19.3 8 Norte 19 Noroeste 0 -- -- 82
2019-10-20 10:00:00 17.8 7 Noroeste 16 Noroeste 0 -- -- 89
2019-10-20 09:00:00 16.9 10 Noroeste 18 Noroeste 0 -- -- 94
2019-10-20 08:00:00 16.3 4 Noroeste 14 Noroeste 0 -- -- 96
2019-10-20 07:00:00 16.5 4 Oeste 13 Oeste 0 -- -- 95
2019-10-20 06:00:00 16.1 6 Noroeste 13 Oeste 0 -- -- 94
2019-10-20 05:00:00 15.2 5 Oeste 17 Oeste 0 -- -- 91
2019-10-20 04:00:00 15 7 Oeste 14 Oeste 0 -- -- 94
2019-10-20 03:00:00 15.6 9 Oeste 14 Oeste 0 -- -- 95
2019-10-20 02:00:00 16 8 Noroeste 17 Noroeste 0 -- -- 97
2019-10-20 01:00:00 16.4 4 Noroeste 13 Noroeste 0 -- -- 96
2019-10-20 00:00:00 16.2 5 Noroeste 13 Noroeste 0 -- -- 97
2019-10-19 23:00:00 15.3 5 Oeste 13 Noroeste 0 -- -- 96
2019-10-19 22:00:00 16.5 7 Noroeste 15 Noroeste 0 -- -- 96
2019-10-19 21:00:00 16.5 5 Noroeste 14 Noroeste 0 -- -- 94
2019-10-19 20:00:00 15.7 7 Noroeste 15 Noroeste 0 -- -- 91
2019-10-19 19:00:00 17.2 6 Noroeste 14 Norte 0 -- -- 86
2019-10-19 18:00:00 20.4 6 Noroeste 18 Norte 0 -- -- 71
2019-10-19 17:00:00 19.3 9 Norte 27 Norte 0 -- -- 75
2019-10-19 16:00:00 20.4 11 Nordeste 26 Norte 0 -- -- 72
2019-10-19 15:00:00 20.8 11 Norte 24 Nordeste 0 -- -- 70
2019-10-19 14:00:00 20.5 12 Norte 20 Nordeste 0 -- -- 76
2019-10-19 13:00:00 19.8 9 Norte 19 Nordeste 0 -- -- 78
2019-10-19 12:00:00 19.3 9 Norte 23 Nordeste 0 -- -- 80
2019-10-19 11:00:00 17.6 7 Noroeste 14 Norte 0 -- -- 91
2019-10-19 10:00:00 17.8 5 Norte 13 Norte 0 -- -- 85
2019-10-19 09:00:00 15.7 4 Noroeste 7 Noroeste 0 -- -- 96
2019-10-19 08:00:00 15.3 3 Norte 13 Noroeste 0 -- -- 100
2019-10-19 07:00:00 15.7 7 Norte 14 Noroeste 0 -- -- 100
2019-10-19 06:00:00 16.2 4 Noroeste 8 Norte 0 -- -- 98
2019-10-19 05:00:00 16.2 5 Oeste 8 Sudoeste 0 -- -- 94
2019-10-19 04:00:00 15.2 4 Norte 9 Norte 0 -- -- 96
2019-10-19 03:00:00 15.6 5 Norte 10 Norte 0 -- -- 97
2019-10-19 02:00:00 15.2 4 Noroeste 8 Noroeste 0 -- -- 98
2019-10-19 01:00:00 15.2 4 Norte 9 Noroeste 0 -- -- 98
2019-10-19 00:00:00 16 6 Norte 13 Noroeste 0 -- -- 95
2019-10-18 23:00:00 15.6 4 Noroeste 13 Noroeste 0 -- -- 94
2019-10-18 22:00:00 15.3 5 Noroeste 9 Noroeste 0 -- -- 96
2019-10-18 21:00:00 15.5 4 Noroeste 9 Norte 0 -- -- 97
2019-10-18 20:00:00 15.3 5 Noroeste 12 Norte 0 -- -- 94
2019-10-18 19:00:00 16.8 5 Norte 12 Norte 0 -- -- 89
2019-10-18 18:00:00 18.4 8 Norte 17 Norte 0 -- -- 80
2019-10-18 17:00:00 18.5 9 Norte 19 Norte 0 -- -- 84
2019-10-18 16:00:00 20.1 8 Norte 21 Norte 0 -- -- 80
2019-10-18 15:00:00 19.9 13 Norte 23 Norte 0 -- -- 73
2019-10-18 14:00:00 19.9 13 Norte 24 Nordeste 0 -- -- 71
2019-10-18 13:00:00 20 10 Nordeste 21 Norte 0 -- -- 76
2019-10-18 12:00:00 19.6 7 Norte 17 Noroeste 0 -- -- 70
2019-10-18 11:00:00 18 8 Norte 14 Norte 0 -- -- 87
2019-10-18 10:00:00 16.1 6 Norte 17 Norte 0 -- -- 96
2019-10-18 09:00:00 15.5 5 Noroeste 14 Norte 0 -- -- 100
2019-10-18 08:00:00 15 5 Noroeste 14 Noroeste 0 -- -- 98
2019-10-18 07:00:00 15.4 6 Noroeste 10 Noroeste 0 -- -- 97
2019-10-18 06:00:00 15.7 8 Oeste 13 Oeste 0 -- -- 93
2019-10-18 05:00:00 13.7 6 Noroeste 14 Oeste 0 -- -- 98
2019-10-18 04:00:00 13.6 5 Oeste 10 Oeste 0 -- -- 100
2019-10-18 03:00:00 14.1 6 Oeste 13 Oeste 0 -- -- 99
2019-10-18 02:00:00 13.1 6 Oeste 11 Noroeste 0 -- -- 100
2019-10-18 01:00:00 12.2 5 Oeste 8 Sudoeste 0 -- -- 100
2019-10-18 00:00:00 13.8 3 Noroeste 7 Nordeste 0 -- -- 99
2019-10-17 23:00:00 15 3 Este 9 Este 0 -- -- 99
2019-10-17 22:00:00 13.6 2 Oeste 6 Norte 0 -- -- 99
2019-10-17 21:00:00 13 3 Oeste 5 Sudoeste 0 -- -- 99
2019-10-17 20:00:00 12.9 4 Oeste 6 Oeste 0 -- -- 94
2019-10-17 19:00:00 16.2 3 Nordeste 15 Nordeste 0 -- -- 82
2019-10-17 18:00:00 18.4 8 Nordeste 19 Este 0 -- -- 72
2019-10-17 17:00:00 19.3 8 Norte 21 Norte 0 -- -- 62
2019-10-17 16:00:00 19.7 9 Norte 22 Norte 0 -- -- 65
2019-10-17 15:00:00 19.3 9 Norte 21 Norte 0 -- -- 68
2019-10-17 14:00:00 18.7 10 Nordeste 20 Norte 0 -- -- 73
2019-10-17 13:00:00 17.9 9 Norte 20 Nordeste 0 -- -- 78
2019-10-17 12:00:00 17.3 8 Norte 15 Norte 0 -- -- 83
2019-10-17 11:00:00 16.6 5 Norte 15 Norte 0 -- -- 84
2019-10-17 10:00:00 16 4 Norte 12 Norte 0 -- -- 93
2019-10-17 09:00:00 14.7 4 Noroeste 6 Noroeste 0 -- -- 100
2019-10-17 08:00:00 14.5 3 Noroeste 5 Noroeste 0 -- -- 100
2019-10-17 07:00:00 14.6 3 Norte 6 Norte 0 -- -- 100
2019-10-17 06:00:00 14.3 2 Noroeste 9 Oeste 0 -- -- 100
2019-10-17 05:00:00 14.5 2 Noroeste 5 Norte 0 -- -- 100
2019-10-17 04:00:00 14.6 0 Calma 8 Este 0 -- -- 100
2019-10-17 03:00:00 14.9 3 Nordeste 9 Nordeste 0 -- -- 100
2019-10-17 02:00:00 14.8 0 Calma 7 Nordeste 0 -- -- 100
2019-10-17 01:00:00 15.1 4 Nordeste 9 Nordeste 0 -- -- 100
2019-10-17 00:00:00 15.5 4 Este 10 Nordeste 0 -- -- 100
2019-10-16 23:00:00 15.5 4 Este 9 Nordeste 0 -- -- 100
2019-10-16 22:00:00 15.6 2 Este 7 Este 0 -- -- 100
2019-10-16 21:00:00 15.6 4 Este 11 Nordeste 0 -- -- 100
2019-10-16 20:00:00 16 4 Nordeste 8 Nordeste 0 -- -- 98
2019-10-16 19:00:00 16.3 5 Este 11 Este 0 -- -- 91
2019-10-16 18:00:00 16.5 4 Este 12 Sudeste 0 -- -- 95
2019-10-16 17:00:00 16.1 5 Sudeste 12 Este 0 -- -- 99
2019-10-16 16:00:00 15.7 4 Este 13 Este 0.2 -- -- 100
2019-10-16 15:00:00 15.7 5 Este 14 Nordeste 0 -- -- 100
2019-10-16 14:00:00 16.2 6 Nordeste 15 Nordeste 0.2 -- -- 100
2019-10-16 13:00:00 16 6 Este 11 Este 0 -- -- 100
2019-10-16 12:00:00 16.1 7 Este 13 Este 0 -- -- 100
2019-10-16 11:00:00 15.9 7 Nordeste 16 Este 0 -- -- 100
2019-10-16 10:00:00 15.7 7 Nordeste 14 Nordeste 0 -- -- 100
2019-10-16 09:00:00 15.3 2 Este 8 Sudeste 0 -- -- 100
2019-10-16 08:00:00 14.7 3 Sur 8 Sudeste 0 -- -- 100
2019-10-16 07:00:00 14.4 3 Sur 6 Sudeste 0 -- -- 100
2019-10-16 06:00:00 14.8 4 Sudeste 11 Sudeste 0 -- -- 100
2019-10-16 05:00:00 15.2 3 Este 9 Sudeste 0 -- -- 100
2019-10-16 04:00:00 15.2 5 Este 12 Nordeste 0 -- -- 100
2019-10-16 03:00:00 15.3 5 Este 14 Nordeste 0 -- -- 100
2019-10-16 02:00:00 15.4 6 Sudeste 12 Sudeste 0 -- -- 100
2019-10-16 01:00:00 15.5 4 Sudeste 14 Sudeste 0 -- -- 99
2019-10-16 00:00:00 15.6 4 Este 10 Sudeste 0 -- -- 98
2019-10-15 23:00:00 15.5 4 Este 13 Nordeste 0 -- -- 97
2019-10-15 22:00:00 15.6 5 Este 13 Este 0 -- -- 96
2019-10-15 21:00:00 15.5 5 Este 10 Este 0 -- -- 95
2019-10-15 20:00:00 15.6 5 Este 11 Nordeste 0 -- -- 92
2019-10-15 19:00:00 15.8 7 Nordeste 14 Nordeste 0 -- -- 86
2019-10-15 18:00:00 16.3 8 Nordeste 13 Nordeste 0 -- -- 86
2019-10-15 17:00:00 16.4 6 Norte 14 Norte 0 -- -- 88
2019-10-15 16:00:00 16 8 Norte 15 Este 0.2 -- -- 94
2019-10-15 15:00:00 16 6 Este 17 Este 0 -- -- 99
2019-10-15 14:00:00 16.4 6 Este 17 Este 0 -- -- 97
2019-10-15 13:00:00 17.1 10 Nordeste 16 Este 0 -- -- 92
2019-10-15 12:00:00 17.3 6 Nordeste 13 Nordeste 0 -- -- 89
2019-10-15 11:00:00 16.9 4 Sudeste 12 Este 0 -- -- 93
2019-10-15 10:00:00 15.4 3 Sudeste 9 Nordeste 0 -- -- 100
2019-10-15 09:00:00 14.9 0 Calma 7 Sudoeste 0 -- -- 100
2019-10-15 08:00:00 14.4 4 Sur 12 Este 0 -- -- 100
2019-10-15 07:00:00 14.9 5 Este 13 Este 0 -- -- 100
2019-10-15 06:00:00 15.2 4 Este 10 Este 0 -- -- 100
2019-10-15 05:00:00 14.7 2 Sur 8 Sur 0.2 -- -- 100
2019-10-15 04:00:00 14.8 0 Calma 10 Nordeste 0 -- -- 100
2019-10-15 03:00:00 14.6 4 Oeste 12 Norte 0 -- -- 100
2019-10-15 02:00:00 14.5 0 Calma 6 Sudoeste 0 -- -- 100
2019-10-15 01:00:00 14.5 4 Sudoeste 8 Sudeste 0 -- -- 100
2019-10-15 00:00:00 14.3 0 Calma 8 Nordeste 0 -- -- 100